Holland, MI

5:03 PM EDT on September 16, 2019 (GMT -0400)
Tulip City

Weather History for KBIV - August, 2019

Change the Weather History Date:

Sunday, August 25, 2019

  Actual Average Record
Temperature  
Mean Temperature 66 °F 70 °F  
Max Temperature 79 °F 80 °F 95 °F (1959)
Min Temperature 52 °F 60 °F 42 °F (1977)
Degree Days  
Heating Degree Days 0 0  
Month to date heating degree days 2 0  
Since 1 June heating degree days 49 54  
Since 1 July heating degree days 2 6  
Cooling Degree Days 0 5  
Month to date cooling degree days 154 164  
Year to date cooling degree days 558 587  
Since 1 June cooling degree days 554 545  
Growing Degree Days 16 (Base 50)    
Moisture  
Dew Point 55 °F    
Average Humidity 69    
Maximum Humidity 96    
Minimum Humidity 45    
Precipitation  
Precipitation 0.00 in 0.13 in 2.44 in (1982)
Month to date precipitation 1.34 2.85  
Year to date precipitation 21.89 22.49  
Sea Level Pressure  
Sea Level Pressure 30.15 in    
Wind  
Wind Speed 7 mph ()    
Max Wind Speed 20 mph    
Max Gust Speed 26 mph    
Visibility 10.0 miles    
Events      
T = Trace of Precipitation, MM = Missing Value Source: Averaged Metar Reports

Daily Weather History Graph

Daily Weather History Graph

Search for Another Location

Airport or City:

Astronomy

Aug. 25, 2019 Rise Set
Actual Time 7:01 AM EDT 8:30 PM EDT
Civil Twilight 6:31 AM EDT 9:00 PM EDT
Nautical Twilight 5:55 AM EDT 9:36 PM EDT
Astronomical Twilight 5:17 AM EDT 10:13 PM EDT
Moon 1:31 AM EDT (8/25) 4:56 PM EDT (8/25)
Length of Visible Light 14h 28m
Length of Day
13h 29m
Waning Crescent, 29% of the Moon is Illuminated
Aug 25
Waning Crescent
Aug 30
New
Sep 5
First Quarter
Sep 14
Full
Sep 21
Last Quarter

Hourly Weather History & Observations

Time (EDT) Temp. Dew Point Humidity Pressure Visibility Wind Dir Wind Speed Gust Speed Precip Events Conditions
12:53 AM 60.1 °F 54.0 °F 80% 30.24 in 10.0 mi East 5.8 mph - N/A   Clear
1:53 AM 57.9 °F 54.0 °F 87% 30.24 in 10.0 mi East 4.6 mph - N/A   Clear
2:53 AM 57.0 °F 53.1 °F 87% 30.23 in 10.0 mi East 4.6 mph - N/A   Clear
3:53 AM 55.9 °F 53.1 °F 90% 30.22 in 10.0 mi East 4.6 mph - N/A   Clear
4:53 AM 54.0 °F 52.0 °F 93% 30.21 in 10.0 mi East 4.6 mph - N/A   Clear
5:53 AM 53.1 °F 52.0 °F 96% 30.21 in 10.0 mi East 4.6 mph - N/A   Clear
6:53 AM 54.0 °F 52.0 °F 93% 30.21 in 10.0 mi East 5.8 mph - N/A   Clear
7:53 AM 55.9 °F 54.0 °F 93% 30.22 in 10.0 mi East 5.8 mph - N/A   Clear
8:53 AM 61.0 °F 55.9 °F 83% 30.22 in 10.0 mi East 8.1 mph - N/A   Clear
9:53 AM 64.9 °F 57.0 °F 75% 30.21 in 10.0 mi East 9.2 mph - N/A   Clear
10:53 AM 70.0 °F 57.9 °F 65% 30.20 in 10.0 mi SE 9.2 mph - N/A   Clear
11:53 AM 72.0 °F 57.0 °F 59% 30.19 in 10.0 mi SE 11.5 mph - N/A   Clear
12:53 PM 73.9 °F 55.0 °F 52% 30.15 in 10.0 mi East 12.7 mph 23.0 mph N/A   Clear
1:53 PM 75.0 °F 54.0 °F 48% 30.14 in 10.0 mi ESE 15.0 mph - N/A   Clear
2:53 PM 78.1 °F 55.0 °F 45% 30.13 in 10.0 mi East 15.0 mph 23.0 mph N/A   Clear
3:53 PM 78.1 °F 55.9 °F 46% 30.10 in 10.0 mi ESE 12.7 mph 23.0 mph N/A   Partly Cloudy
4:53 PM 78.1 °F 57.0 °F 48% 30.08 in 10.0 mi ESE 12.7 mph - N/A   Scattered Clouds
5:53 PM 77.0 °F 55.9 °F 48% 30.06 in 10.0 mi SE 11.5 mph 21.9 mph N/A   Clear
6:53 PM 75.9 °F 57.0 °F 52% 30.05 in 10.0 mi East 12.7 mph 19.6 mph N/A   Clear
7:53 PM 72.0 °F 57.0 °F 59% 30.05 in 10.0 mi East 6.9 mph - N/A   Clear
8:53 PM 69.1 °F 55.9 °F 63% 30.06 in 10.0 mi ESE 8.1 mph - N/A   Scattered Clouds
9:53 PM 68.0 °F 55.0 °F 63% 30.06 in 10.0 mi ESE 6.9 mph - N/A   Clear
10:53 PM 66.9 °F 55.0 °F 66% 30.06 in 10.0 mi ESE 9.2 mph - N/A   Clear
11:53 PM 64.9 °F 55.0 °F 70% 30.05 in 10.0 mi ESE 8.1 mph - N/A   Clear